FW2710 Weather Reports


time (UTC)temp
C
wind
direction
speed
KPH
gust
KPH
rain 1hr
cm
rain 24hr
cm
rain mn
cm
humidity
%
barometer
mb
20260505125025 8 0 0.0 12.9 0.00 1.47 0.03 76 1010.0
20260505124550 8 0 0.0 12.9 0.00 1.47 0.03 77 1010.3
20260505124027 8 0 0.0 9.7 0.00 1.47 0.03 75 1010.2
20260505123524 8 287 0.0 9.7 0.00 1.47 0.03 75 1010.3
20260505123040 8 0 0.0 9.7 0.00 1.47 0.03 75 1010.6
20260505122526 8 0 0.0 9.7 0.00 1.47 0.03 75 1010.6
20260505122025 8 0 0.0 4.8 0.00 1.47 0.03 75 1010.4
20260505121542 8 0 0.0 4.8 0.00 1.47 0.03 76 1010.4
20260505121027 8 0 0.0 4.8 0.00 1.47 0.03 75 1010.1
20260505120528 8 0 0.0 1.6 0.00 1.47 0.03 75 1009.9
20260505120039 9 0 0.0 1.6 0.00 1.47 0.03 74 1009.7
20260505115525 9 0 0.0 0.0 0.00 1.47 0.03 73 1009.3
20260505115025 9 0 0.0 1.6 0.00 1.47 0.03 73 1009.1
20260505114538 9 0 0.0 1.6 0.00 1.47 0.03 73 1009.1
20260505114026 9 0 0.0 1.6 0.00 1.47 0.03 73 1009.0
20260505113528 9 0 0.0 1.6 0.00 1.47 0.03 72 1008.9
20260505113044 9 0 0.0 0.0 0.00 1.47 0.03 73 1008.6
20260505112525 9 0 0.0 0.0 0.00 1.47 0.03 73 1008.8
20260505112027 9 0 0.0 0.0 0.00 1.47 0.03 74 1008.6
20260505111540 9 0 0.0 0.0 0.00 1.47 0.03 74 1008.8
20260505111026 9 0 0.0 4.8 0.00 1.47 0.03 73 1008.7
20260505110525 9 0 0.0 4.8 0.00 1.47 0.03 73 1008.6
20260505102025 10 0 0.0 0.0 0.00 1.47 0.03 76 1008.2
20260505101543 10 0 0.0 3.2 0.00 1.47 0.03 75 1008.2
20260505101025 10 0 0.0 3.2 0.00 1.47 0.03 75 1008.2
20260505100525 10 0 0.0 3.2 0.00 1.47 0.03 75 1007.8
20260505100042 10 0 0.0 0.0 0.00 1.47 0.03 76 1007.5
20260505095525 10 0 0.0 0.0 0.00 1.47 0.03 78 1007.5
20260505095024 10 0 0.0 0.0 0.00 1.47 0.03 77 1007.4
20260505094541 10 0 0.0 0.0 0.00 1.47 0.03 74 1007.1
20260505094025 10 0 0.0 0.0 0.00 1.47 0.03 73 1007.5
20260505093526 10 0 0.0 0.0 0.00 1.47 0.03 71 1007.6
20260505093040 10 0 0.0 0.0 0.00 1.47 0.03 71 1007.7
20260505092528 10 0 0.0 0.0 0.00 1.47 0.03 73 1007.8
20260505092025 11 0 0.0 0.0 0.00 1.47 0.03 76 1008.1
20260505091539 11 0 0.0 0.0 0.00 1.47 0.03 75 1007.8
20260505091025 11 0 0.0 0.0 0.00 1.47 0.03 76 1007.9
20260505090525 11 0 0.0 0.0 0.00 1.47 0.03 77 1008.3
20260505090046 11 0 0.0 0.0 0.00 1.47 0.03 77 1008.0
20260505085525 11 0 0.0 0.0 0.00 1.47 0.03 77 1007.9
20260505085025 11 0 0.0 0.0 0.00 1.47 0.03 76 1007.8
20260505084551 11 0 0.0 0.0 0.00 1.47 0.03 75 1007.7
20260505084025 11 0 0.0 1.6 0.00 1.47 0.03 76 1007.6
20260505083526 11 0 0.0 1.6 0.00 1.47 0.03 78 1007.7
20260505083054 11 0 0.0 1.6 0.03 1.47 0.03 79 1007.8
20260505082525 11 0 0.0 0.0 0.03 1.47 0.03 81 1007.4
20260505082025 11 0 0.0 0.0 0.03 1.47 0.03 79 1007.1
20260505081544 11 0 0.0 0.0 0.03 1.47 0.03 80 1006.9
20260505081028 11 0 0.0 0.0 0.03 1.47 0.03 81 1006.8
20260505080526 11 0 0.0 0.0 0.03 1.47 0.03 81 1006.4
20260505080046 11 0 0.0 0.0 0.03 1.47 0.03 80 1006.0
20260505075524 11 0 0.0 0.0 0.03 1.47 0.03 80 1006.1
20260505075025 11 0 0.0 0.0 0.03 1.47 0.03 79 1005.9
20260505074535 11 0 0.0 0.0 0.03 1.47 0.03 78 1005.7
20260505074025 11 0 0.0 0.0 0.03 1.47 0.03 77 1005.6
20260505073525 11 0 0.0 0.0 0.03 1.47 0.03 74 1005.6
20260505073036 11 0 0.0 0.0 0.00 1.47 0.00 75 1005.7
20260505072525 11 0 0.0 0.0 0.00 1.47 0.00 76 1005.7
20260505072025 11 0 0.0 0.0 0.00 1.47 0.00 78 1005.8
20260505071547 11 0 0.0 0.0 0.00 1.47 0.00 80 1005.7
20260505071027 11 0 0.0 0.0 0.00 1.47 0.00 83 1005.7
20260505070525 11 0 0.0 0.0 0.00 1.47 0.00 83 1005.4
20260505070040 11 0 0.0 0.0 0.00 1.47 0.00 86 1005.4
20260505065525 11 0 0.0 0.0 0.00 1.47 0.00 88 1005.5
20260505065025 12 0 0.0 0.0 0.00 1.47 0.00 89 1005.5
20260505064540 12 0 0.0 0.0 0.00 1.47 0.00 90 1005.3
20260505064025 12 0 0.0 0.0 0.00 1.47 0.00 90 1005.2
20260505063525 12 0 0.0 0.0 0.00 1.47 0.00 90 1005.1
20260505063040 12 0 0.0 0.0 0.00 1.47 0.00 90 1004.8
20260505062522 12 0 0.0 0.0 0.00 1.47 0.00 90 1004.6
20260505062026 12 0 0.0 0.0 0.00 1.47 0.00 90 1004.5
20260505061543 12 0 0.0 0.0 0.00 1.47 0.00 90 1004.6
20260505061027 13 0 0.0 0.0 0.00 1.47 0.00 90 1004.7
20260505060525 13 0 0.0 0.0 0.00 1.47 0.00 90 1004.5
20260505060045 13 0 0.0 0.0 0.00 1.47 0.00 90 1004.3
20260505055525 13 0 0.0 0.0 0.00 1.47 0.00 90 1004.3
20260505055026 13 0 0.0 0.0 0.00 1.47 0.00 90 1004.2
20260505054546 13 0 0.0 0.0 0.00 1.47 0.00 90 1004.3
20260505054026 13 0 0.0 0.0 0.00 1.47 0.00 90 1004.2
20260505053524 13 0 0.0 0.0 0.00 1.47 0.00 90 1004.3
20260505053039 13 0 0.0 0.0 0.00 1.47 0.00 90 1004.4
20260505052521 13 0 0.0 0.0 0.00 1.47 0.00 90 1004.2
20260505052025 13 0 0.0 0.0 0.00 1.47 0.00 90 1004.1
20260505051539 13 0 0.0 0.0 0.00 1.47 0.00 90 1003.9
20260505051026 13 0 0.0 0.0 0.00 1.47 0.00 90 1003.7
20260505050525 13 0 0.0 0.0 0.00 1.47 0.00 90 1003.5
20260505041539 13 0 0.0 0.0 0.13 1.47 1.47 91 1002.9
20260505041026 13 0 0.0 0.0 0.20 1.47 1.47 92 1002.7
20260505040525 13 0 0.0 0.0 0.23 1.47 1.47 91 1002.5
20260505040040 13 0 0.0 0.0 0.33 1.47 1.47 91 1002.6
20260505035529 13 0 0.0 0.0 0.43 1.47 1.47 91 1002.4
20260505035025 13 0 0.0 0.0 0.46 1.47 1.47 91 1002.7
20260505034542 13 0 0.0 0.0 0.46 1.47 1.47 91 1002.7
20260505034025 13 0 0.0 0.0 0.61 1.47 1.47 91 1002.6
20260505033525 13 0 0.0 0.0 0.76 1.47 1.47 91 1002.5
20260505033043 13 0 0.0 0.0 0.94 1.47 1.47 91 1002.7
20260505032524 13 0 0.0 0.0 1.22 1.47 1.47 90 1003.9
20260505032025 13 0 0.0 0.0 1.37 1.40 1.40 90 1004.3
20260505031552 13 0 0.0 0.0 1.32 1.32 1.32 90 1004.3
20260505031026 13 0 0.0 0.0 1.27 1.27 1.27 90 1004.3
20260505030525 13 0 0.0 0.0 1.24 1.24 1.24 89 1004.0
20260505030044 13 0 0.0 0.0 1.14 1.14 1.14 88 1004.5
20260505025522 13 0 0.0 0.0 1.04 1.04 1.04 88 1004.4
20260505025024 13 0 0.0 0.0 1.02 1.02 1.02 87 1004.2
20260505024548 13 0 0.0 0.0 0.99 0.99 0.99 86 1004.5
20260505024027 13 0 0.0 1.6 0.84 0.84 0.84 85 1004.6
20260505023525 14 0 0.0 1.6 0.71 0.71 0.71 83 1004.1
20260505023041 15 0 0.0 4.8 0.48 0.48 0.48 79 1004.6
20260505022525 16 0 0.0 9.7 0.23 0.23 0.23 73 1004.5
20260505022025 17 0 0.0 14.5 0.00 0.00 0.00 65 1004.4
20260505021540 19 287 1.6 14.5 0.00 0.00 0.00 59 1004.1
20260505021027 20 287 4.8 17.7 0.00 0.00 0.00 54 1003.9
20260505020525 21 287 6.4 17.7 0.00 0.00 0.00 60 1001.6
20260505020041 21 287 4.8 16.1 0.00 0.00 0.00 60 1001.4
20260505015525 21 0 8.0 16.1 0.00 0.00 0.00 61 1001.3
20260505015025 21 287 6.4 12.9 0.00 0.00 0.00 61 1001.4
20260505014559 21 287 3.2 16.1 0.00 0.00 0.00 61 1001.5
20260505014025 21 287 3.2 16.1 0.00 0.00 0.00 61 1001.5
20260505013521 21 0 4.8 14.5 0.00 0.00 0.00 61 1001.5
20260505013036 21 287 4.8 12.9 0.00 0.00 0.00 61 1001.2
20260505012526 21 287 6.4 14.5 0.00 0.00 0.00 61 1001.2
20260505012026 21 287 3.2 14.5 0.00 0.00 0.00 61 1001.1
20260505011550 21 287 1.6 14.5 0.00 0.00 0.00 61 1001.0
20260505011025 21 0 4.8 14.5 0.00 0.00 0.00 60 1000.8
20260505010525 21 287 6.4 16.1 0.00 0.00 0.00 60 1000.8
20260505010040 21 287 4.8 16.1 0.00 0.00 0.00 60 1000.8
20260505005525 21 287 8.0 16.1 0.00 0.00 0.00 60 1000.8
20260505005027 21 287 4.8 16.1 0.00 0.00 0.00 60 1000.7
20260505004540 21 287 6.4 16.1 0.00 0.00 0.00 60 1000.6
20260505004026 21 287 1.6 14.5 0.00 0.00 0.00 59 1000.5
20260505003530 21 287 3.2 14.5 0.00 0.00 0.00 58 1000.6
20260505003039 21 287 6.4 19.3 0.00 0.00 0.00 58 1000.5
20260505002526 21 287 8.0 19.3 0.00 0.00 0.00 57 1000.6
20260505002026 22 287 8.0 14.5 0.00 0.00 0.00 57 1000.7
20260505001543 22 287 4.8 19.3 0.00 0.00 0.00 57 1000.8
20260505001026 22 287 4.8 20.9 0.00 0.00 0.00 56 1000.8
20260505000526 22 287 8.0 20.9 0.00 0.00 0.00 55 1000.7
20260505000052 22 287 8.0 17.7 0.00 0.00 0.00 55 1000.5
20260504235528 22 287 9.7 17.7 0.00 0.00 0.00 55 1000.5
20260504235027 22 287 9.7 20.9 0.00 0.00 0.00 54 1000.5
20260504234542 23 287 11.3 24.1 0.00 0.00 0.00 53 1000.4
20260504234027 23 287 12.9 24.1 0.00 0.00 0.00 53 1000.4
20260504233527 23 287 9.7 20.9 0.00 0.00 0.00 53 1000.4
20260504233041 23 287 11.3 27.4 0.00 0.00 0.00 52 1000.5
20260504232530 23 287 12.9 27.4 0.00 0.00 0.00 51 1000.5
20260504232026 23 287 12.9 24.1 0.00 0.00 0.00 51 1000.5
20260504231541 23 287 14.5 24.1 0.00 0.00 0.00 50 1000.5
20260504231026 24 287 11.3 24.1 0.00 0.00 0.00 50 1000.5
20260504230526 24 287 11.3 25.7 0.00 0.00 0.00 50 1000.5
20260504230045 24 287 12.9 25.7 0.00 0.00 0.00 49 1000.7
20260504225527 24 287 14.5 25.7 0.00 0.00 0.00 49 1000.7
20260504225026 24 287 9.7 20.9 0.00 0.00 0.00 49 1000.9
20260504224545 24 287 11.3 24.1 0.00 0.00 0.00 49 1001.0
20260504224026 24 287 12.9 24.1 0.00 0.00 0.00 49 1001.0
20260504223526 24 287 14.5 24.1 0.00 0.00 0.00 48 1001.0
20260504223041 24 287 12.9 24.1 0.00 0.00 0.00 48 1001.2
20260504222526 24 287 12.9 24.1 0.00 0.00 0.00 47 1001.2
20260504222030 25 287 12.9 27.4 0.00 0.00 0.00 47 1001.2
20260504221540 25 287 14.5 27.4 0.00 0.00 0.00 47 1001.4
20260504221027 25 287 14.5 25.7 0.00 0.00 0.00 47 1001.4
20260504220527 25 287 12.9 29.0 0.00 0.00 0.00 46 1001.5
20260504220040 25 287 12.9 29.0 0.00 0.00 0.00 46 1001.4
20260504215528 25 287 14.5 29.0 0.00 0.00 0.00 45 1001.4
20260504215027 25 287 16.1 29.0 0.00 0.00 0.00 45 1001.5
20260504214542 25 287 12.9 25.7 0.00 0.00 0.00 45 1001.6
20260504214028 25 287 17.7 25.7 0.00 0.00 0.00 45 1001.7
20260504213522 25 287 12.9 27.4 0.00 0.00 0.00 45 1001.8
20260504213035 25 287 17.7 27.4 0.00 0.00 0.00 45 1001.8
20260504212524 25 287 14.5 24.1 0.00 0.00 0.00 45 1001.8
20260504212028 25 287 14.5 22.5 0.00 0.00 0.00 45 1001.8
20260504211543 25 287 14.5 22.5 0.00 0.00 0.00 44 1001.9
20260504211024 25 287 14.5 27.4 0.00 0.00 0.00 45 1001.9
20260504210525 25 287 14.5 27.4 0.00 0.00 0.00 44 1001.8
20260504210055 25 287 14.5 27.4 0.00 0.00 0.00 44 1001.9
20260504205524 25 287 12.9 25.7 0.00 0.00 0.00 44 1002.0
20260504205024 25 287 12.9 24.1 0.00 0.00 0.00 44 1001.9
20260504204553 26 287 11.3 24.1 0.00 0.00 0.00 44 1001.9
20260504204025 26 287 14.5 27.4 0.00 0.00 0.00 43 1002.0
20260504203524 26 287 14.5 27.4 0.00 0.00 0.00 42 1002.0
20260504203038 26 287 12.9 24.1 0.00 0.00 0.00 44 1001.9
20260504202525 26 287 14.5 25.7 0.00 0.00 0.00 43 1001.9
20260504202024 26 287 12.9 25.7 0.00 0.00 0.00 43 1002.0
20260504201539 26 287 14.5 25.7 0.00 0.00 0.00 42 1002.1
20260504201024 26 287 14.5 24.1 0.00 0.00 0.00 43 1002.0
20260504200525 26 287 12.9 22.5 0.00 0.00 0.00 42 1002.3
20260504200043 26 287 12.9 25.7 0.00 0.00 0.00 43 1002.2
20260504195523 26 287 12.9 25.7 0.00 0.00 0.00 43 1002.2
20260504195022 26 287 11.3 24.1 0.00 0.00 0.00 43 1002.3
20260504194540 26 287 11.3 19.3 0.00 0.00 0.00 42 1002.3
20260504194024 26 287 9.7 19.3 0.00 0.00 0.00 42 1002.3
20260504193525 26 287 4.8 20.9 0.00 0.00 0.00 42 1002.4
20260504193040 26 287 11.3 20.9 0.00 0.00 0.00 42 1002.4
20260504192524 26 287 11.3 20.9 0.00 0.00 0.00 41 1002.5
20260504192024 26 287 8.0 22.5 0.00 0.00 0.00 43 1002.4
20260504191539 26 287 12.9 22.5 0.00 0.00 0.00 41 1002.6
20260504191027 26 287 12.9 22.5 0.00 0.00 0.00 41 1002.6
20260504190525 25 287 11.3 20.9 0.00 0.00 0.00 42 1002.7
20260504190038 25 287 6.4 17.7 0.00 0.00 0.00 43 1002.8
20260504185524 25 287 8.0 20.9 0.00 0.00 0.00 42 1002.9
20260504185028 25 287 3.2 20.9 0.00 0.00 0.00 43 1002.9
20260504184543 25 287 12.9 20.9 0.00 0.00 0.00 44 1003.0
20260504184024 24 287 9.7 19.3 0.00 0.00 0.00 45 1003.1
20260504183526 24 287 8.0 19.3 0.00 0.00 0.00 48 1003.0
20260504183040 24 287 9.7 20.9 0.00 0.00 0.00 49 1003.1
20260504182521 23 287 11.3 20.9 0.00 0.00 0.00 48 1003.0
20260504182027 23 287 8.0 19.3 0.00 0.00 0.00 51 1003.0
20260504181540 23 287 8.0 20.9 0.00 0.00 0.00 52 1003.1
20260504181028 23 287 9.7 25.7 0.00 0.00 0.00 50 1003.2
20260504180527 23 287 14.5 25.7 0.00 0.00 0.00 48 1003.2
20260504180039 24 287 12.9 22.5 0.00 0.00 0.00 47 1003.3
20260504175526 24 287 11.3 25.7 0.00 0.00 0.00 47 1003.3
20260504175026 24 287 14.5 25.7 0.00 0.00 0.00 47 1003.2
20260504174538 24 287 12.9 24.1 0.00 0.00 0.00 46 1003.1
20260504174027 24 287 9.7 24.1 0.00 0.00 0.00 46 1003.3
20260504173525 24 287 12.9 24.1 0.00 0.00 0.00 46 1003.3
20260504173041 24 287 9.7 22.5 0.00 0.00 0.00 45 1003.6
20260504172526 24 287 12.9 22.5 0.00 0.00 0.00 44 1003.5
20260504172027 24 287 9.7 27.4 0.00 0.00 0.00 44 1003.5
20260504171539 24 287 16.1 27.4 0.00 0.00 0.00 44 1003.5
20260504171031 23 287 11.3 27.4 0.00 0.00 0.00 45 1003.7
20260504170526 24 287 9.7 27.4 0.00 0.00 0.00 44 1003.7
20260504151026 21 287 8.0 17.7 0.00 0.00 0.00 54 1004.3
20260504150526 21 287 9.7 17.7 0.00 0.00 0.00 55 1004.2
20260504141026 18 287 6.4 14.5 0.00 0.00 0.00 65 1004.6
20260504140526 18 287 4.8 14.5 0.00 0.00 0.00 65 1004.8